| time (UTC) | temp C | wind direction | speed KPH | gust KPH | rain 1hr cm | rain 24hr cm | rain mn cm | humidity % | barometer mb |
| 20260509114502 | 9 | 267 | 0.0 | 3.2 | 0.00 | 0.00 | 0.00 | 77 | 1013.3 |
| 20260509113002 | 10 | 328 | 0.0 | 4.8 | 0.00 | 0.00 | 0.00 | 73 | 1013.1 |
| 20260509111504 | 11 | 257 | 0.0 | 3.2 | 0.00 | 0.00 | 0.00 | 68 | 1012.9 |
| 20260509110002 | 11 | 243 | 1.6 | 4.8 | 0.00 | 0.00 | 0.00 | 68 | 1012.7 |
| 20260509104503 | 11 | 241 | 1.6 | 3.2 | 0.00 | 0.00 | 0.00 | 66 | 1012.7 |
| 20260509103002 | 11 | 246 | 1.6 | 4.8 | 0.00 | 0.00 | 0.00 | 63 | 1012.9 |
| 20260509101503 | 12 | 229 | 1.6 | 6.4 | 0.00 | 0.00 | 0.00 | 61 | 1013.0 |
| 20260509100004 | 12 | 212 | 1.6 | 9.7 | 0.00 | 0.00 | 0.00 | 59 | 1012.9 |
| 20260509094505 | 12 | 197 | 1.6 | 9.7 | 0.00 | 0.00 | 0.00 | 60 | 1013.1 |
| 20260509093003 | 12 | 204 | 6.4 | 9.7 | 0.00 | 0.00 | 0.00 | 59 | 1013.1 |
| 20260509091505 | 12 | 227 | 4.8 | 9.7 | 0.00 | 0.00 | 0.00 | 60 | 1013.3 |
| 20260509090004 | 12 | 237 | 6.4 | 9.7 | 0.00 | 0.00 | 0.00 | 61 | 1013.2 |
| 20260509084507 | 12 | 224 | 6.4 | 11.3 | 0.00 | 0.00 | 0.00 | 60 | 1013.1 |
| 20260509083004 | 11 | 213 | 3.2 | 9.7 | 0.00 | 0.00 | 0.00 | 61 | 1012.9 |
| 20260509081505 | 11 | 222 | 3.2 | 6.4 | 0.00 | 0.00 | 0.00 | 62 | 1013.3 |
| 20260509080004 | 12 | 223 | 3.2 | 9.7 | 0.00 | 0.00 | 0.00 | 61 | 1013.5 |
| 20260509074504 | 11 | 232 | 4.8 | 8.0 | 0.00 | 0.00 | 0.00 | 62 | 1013.5 |
| 20260509073006 | 11 | 224 | 3.2 | 6.4 | 0.00 | 0.00 | 0.00 | 62 | 1013.6 |
| 20260509071504 | 11 | 211 | 3.2 | 8.0 | 0.00 | 0.00 | 0.00 | 62 | 1013.6 |
| 20260509070005 | 11 | 211 | 1.6 | 6.4 | 0.00 | 0.00 | 0.00 | 63 | 1013.6 |
| 20260509064504 | 11 | 213 | 0.0 | 3.2 | 0.00 | 0.00 | 0.00 | 64 | 1013.7 |
| 20260509063003 | 11 | 215 | 1.6 | 6.4 | 0.00 | 0.00 | 0.00 | 64 | 1013.9 |
| 20260509061505 | 11 | 213 | 1.6 | 4.8 | 0.00 | 0.00 | 0.00 | 68 | 1014.1 |
| 20260509060007 | 10 | 214 | 1.6 | 4.8 | 0.00 | 0.00 | 0.00 | 69 | 1014.1 |
| 20260509054504 | 10 | 218 | 0.0 | 3.2 | 0.00 | 0.00 | 0.00 | 69 | 1014.2 |
| 20260509053011 | 10 | 211 | 3.2 | 4.8 | 0.00 | 0.00 | 0.00 | 68 | 1014.2 |
| 20260509051507 | 11 | 231 | 0.0 | 3.2 | 0.00 | 0.00 | 0.00 | 67 | 1013.9 |
| 20260509050012 | 11 | 231 | 0.0 | 3.2 | 0.00 | 0.00 | 0.00 | 65 | 1013.8 |
| 20260509044513 | 11 | 246 | 0.0 | 3.2 | 0.00 | 0.00 | 0.00 | 65 | 1014.0 |
| 20260509043022 | 12 | 333 | 0.0 | 3.2 | 0.00 | 0.00 | 0.00 | 61 | 1013.9 |
| 20260509041510 | 12 | 38 | 0.0 | 3.2 | 0.00 | 0.00 | 0.00 | 58 | 1013.9 |
| 20260509040010 | 13 | 38 | 0.0 | 0.0 | 0.00 | 0.00 | 0.00 | 57 | 1013.7 |
| 20260509034513 | 14 | 38 | 0.0 | 1.6 | 0.00 | 0.00 | 0.00 | 52 | 1013.6 |
| 20260509033010 | 14 | 38 | 0.0 | 1.6 | 0.00 | 0.00 | 0.00 | 53 | 1013.6 |
| 20260509031513 | 15 | 38 | 0.0 | 0.0 | 0.00 | 0.00 | 0.00 | 53 | 1013.5 |
| 20260509030011 | 16 | 38 | 0.0 | 0.0 | 0.00 | 0.00 | 0.00 | 48 | 1013.3 |
| 20260509024508 | 16 | 38 | 0.0 | 1.6 | 0.00 | 0.00 | 0.00 | 47 | 1013.1 |
| 20260509023017 | 17 | 26 | 0.0 | 3.2 | 0.00 | 0.00 | 0.00 | 45 | 1012.8 |
| 20260509021510 | 17 | 46 | 0.0 | 0.0 | 0.00 | 0.00 | 0.00 | 44 | 1012.8 |
| 20260509020006 | 18 | 46 | 0.0 | 3.2 | 0.00 | 0.00 | 0.00 | 41 | 1012.8 |
| 20260509014506 | 20 | 22 | 0.0 | 0.0 | 0.00 | 0.00 | 0.00 | 38 | 1012.7 |
| 20260509013035 | 21 | 11 | 0.0 | 3.2 | 0.00 | 0.00 | 0.00 | 36 | 1012.9 |
| 20260509011520 | 21 | 24 | 0.0 | 4.8 | 0.00 | 0.00 | 0.00 | 34 | 1012.7 |
| 20260509010003 | 22 | 11 | 1.6 | 6.4 | 0.00 | 0.00 | 0.00 | 32 | 1012.6 |
| 20260509004517 | 22 | 10 | 6.4 | 16.1 | 0.00 | 0.00 | 0.00 | 31 | 1012.6 |
| 20260509003010 | 23 | 32 | 3.2 | 12.9 | 0.00 | 0.00 | 0.00 | 32 | 1012.5 |
| 20260509001519 | 23 | 14 | 8.0 | 14.5 | 0.00 | 0.00 | 0.00 | 31 | 1012.4 |
| 20260509000016 | 23 | 336 | 4.8 | 12.9 | 0.00 | 0.00 | 0.00 | 30 | 1012.4 |
| 20260508234505 | 23 | 28 | 11.3 | 19.3 | 0.00 | 0.00 | 0.00 | 29 | 1012.5 |
| 20260508233008 | 24 | 17 | 4.8 | 9.7 | 0.00 | 0.00 | 0.00 | 29 | 1012.4 |
| 20260508231518 | 24 | 24 | 11.3 | 20.9 | 0.00 | 0.00 | 0.00 | 29 | 1012.2 |
| 20260508230035 | 25 | 23 | 6.4 | 16.1 | 0.00 | 0.00 | 0.00 | 29 | 1012.2 |
| 20260508224522 | 25 | 22 | 4.8 | 16.1 | 0.00 | 0.00 | 0.00 | 30 | 1012.3 |
| 20260508223011 | 24 | 352 | 8.0 | 16.1 | 0.00 | 0.00 | 0.00 | 30 | 1012.3 |
| 20260508221514 | 24 | 18 | 8.0 | 16.1 | 0.00 | 0.00 | 0.00 | 30 | 1012.5 |
| 20260508220019 | 23 | 344 | 9.7 | 17.7 | 0.00 | 0.00 | 0.00 | 32 | 1012.6 |
| 20260508214526 | 23 | 347 | 9.7 | 17.7 | 0.00 | 0.00 | 0.00 | 33 | 1012.5 |
| 20260508213024 | 24 | 17 | 8.0 | 19.3 | 0.00 | 0.00 | 0.00 | 32 | 1012.7 |
| 20260508211516 | 24 | 22 | 11.3 | 22.5 | 0.00 | 0.00 | 0.00 | 32 | 1012.7 |
| 20260508210029 | 25 | 348 | 12.9 | 25.7 | 0.00 | 0.00 | 0.00 | 32 | 1012.8 |
| 20260508204522 | 25 | 315 | 12.9 | 24.1 | 0.00 | 0.00 | 0.00 | 32 | 1013.0 |
| 20260508203025 | 24 | 17 | 9.7 | 24.1 | 0.00 | 0.00 | 0.00 | 32 | 1013.0 |
| 20260508201510 | 24 | 352 | 12.9 | 24.1 | 0.00 | 0.00 | 0.00 | 33 | 1013.0 |
| 20260508200017 | 24 | 352 | 14.5 | 22.5 | 0.00 | 0.00 | 0.00 | 34 | 1013.1 |
| 20260508194521 | 24 | 325 | 14.5 | 27.4 | 0.00 | 0.00 | 0.00 | 34 | 1013.1 |
| 20260508193023 | 23 | 350 | 11.3 | 25.7 | 0.00 | 0.00 | 0.00 | 36 | 1013.3 |
| 20260508191527 | 23 | 342 | 11.3 | 25.7 | 0.00 | 0.00 | 0.00 | 36 | 1013.1 |
| 20260508190012 | 23 | 352 | 11.3 | 20.9 | 0.00 | 0.00 | 0.00 | 35 | 1013.2 |
| 20260508184535 | 23 | 17 | 14.5 | 32.2 | 0.00 | 0.00 | 0.00 | 35 | 1013.3 |
| 20260508183028 | 22 | 19 | 12.9 | 24.1 | 0.00 | 0.00 | 0.00 | 36 | 1013.4 |
| 20260508181542 | 22 | 352 | 12.9 | 25.7 | 0.00 | 0.00 | 0.00 | 37 | 1013.5 |
| 20260508180026 | 22 | 328 | 12.9 | 29.0 | 0.00 | 0.00 | 0.00 | 40 | 1013.4 |
| 20260508174506 | 22 | 306 | 16.1 | 24.1 | 0.00 | 0.00 | 0.00 | 40 | 1013.6 |
| 20260508173003 | 22 | 352 | 17.7 | 25.7 | 0.00 | 0.00 | 0.00 | 41 | 1013.7 |
| 20260508171505 | 21 | 360 | 14.5 | 29.0 | 0.00 | 0.00 | 0.00 | 42 | 1013.7 |
| 20260508170015 | 21 | 352 | 14.5 | 27.4 | 0.00 | 0.00 | 0.00 | 44 | 1013.8 |
| 20260508164516 | 21 | 342 | 11.3 | 27.4 | 0.00 | 0.00 | 0.00 | 44 | 1013.8 |
| 20260508163003 | 21 | 316 | 9.7 | 24.1 | 0.00 | 0.00 | 0.00 | 47 | 1013.9 |
| 20260508161505 | 20 | 329 | 14.5 | 25.7 | 0.00 | 0.00 | 0.00 | 48 | 1013.9 |
| 20260508160013 | 20 | 44 | 12.9 | 25.7 | 0.00 | 0.00 | 0.00 | 50 | 1013.9 |
| 20260508154514 | 19 | 9 | 16.1 | 25.7 | 0.00 | 0.00 | 0.00 | 52 | 1013.8 |
| 20260508153004 | 19 | 18 | 11.3 | 24.1 | 0.00 | 0.00 | 0.00 | 54 | 1013.8 |
| 20260508151510 | 18 | 346 | 11.3 | 24.1 | 0.00 | 0.00 | 0.00 | 53 | 1013.6 |
| 20260508150011 | 18 | 340 | 8.0 | 24.1 | 0.00 | 0.00 | 0.00 | 54 | 1013.7 |
| 20260508144529 | 18 | 310 | 11.3 | 24.1 | 0.00 | 0.00 | 0.00 | 55 | 1013.6 |
| 20260508143018 | 17 | 336 | 9.7 | 17.7 | 0.00 | 0.00 | 0.00 | 60 | 1013.6 |
| 20260508141504 | 16 | 360 | 9.7 | 17.7 | 0.00 | 0.00 | 0.00 | 61 | 1013.4 |
| 20260508140010 | 15 | 9 | 8.0 | 14.5 | 0.00 | 0.00 | 0.00 | 65 | 1013.3 |
| 20260508134514 | 13 | 326 | 3.2 | 6.4 | 0.00 | 0.00 | 0.00 | 68 | 1013.3 |
| 20260508133023 | 13 | 333 | 1.6 | 8.0 | 0.00 | 0.00 | 0.00 | 69 | 1013.2 |
| 20260508131521 | 12 | 336 | 4.8 | 12.9 | 0.00 | 0.00 | 0.00 | 77 | 1013.0 |
| 20260508130004 | 9 | 352 | 3.2 | 4.8 | 0.00 | 0.00 | 0.00 | 84 | 1012.4 |
| 20260508124507 | 8 | 285 | 0.0 | 0.0 | 0.00 | 0.00 | 0.00 | 83 | 1012.1 |
| 20260508123014 | 7 | 285 | 0.0 | 1.6 | 0.00 | 0.00 | 0.00 | 82 | 1011.7 |
| 20260508121520 | 7 | 285 | 0.0 | 0.0 | 0.00 | 0.00 | 0.00 | 80 | 1011.6 |
| 20260508120026 | 7 | 285 | 0.0 | 0.0 | 0.00 | 0.00 | 0.00 | 79 | 1011.5 |